Weather Roundup
Issued by NWS Springfield, MO

Home | Current Version | Previous Version | Text Only | Print | Product List | Glossary On
Versions: 1 2 3 4 5 6 7 8 9 10 11 12 13 14 15 16 17 18 19 20 21 22 23 24 25 26 27 28 29 30 31 32 33 34 35 36 37 38 39 40 41 42 43 44 45 46 47 48 49 50
000
NZUS99 KSGF 180107
HRRSGF

HOURLY WEATHER
NATIONAL WEATHER SERVICE SPRINGFIELD MO
800 PM CDT TUE OCT 17 2017

......SGF CWA......

CITY           SKY/WX    TMP DP  RH WIND       PRES   REMARKS
SPRINGFIELD    CLEAR     57  42  57 SE7       30.16S
JOPLIN         CLEAR     59  46  62 S6        30.15R
WEST PLAINS    CLEAR     55  38  52 SE3       30.22R
ROLLA          CLEAR     55  41  59 S9        30.19R
OSAGE BEACH    CLEAR     59  43  55 SE6       30.18R
BRANSON        CLEAR     57  37  47 SE8       30.19S

......SURROUNDING SGF CWA......

CITY           SKY/WX    TMP DP  RH WIND       PRES   REMARKS
CHANUTE        CLEAR     59  47  64 S10       30.12R
PARSONS        CLEAR     59  46  62 SE3       30.13S
COFFEYVILLE    CLEAR     59  47  64 S8        30.12S
EMPORIA        CLEAR     59  45  59 S9        30.08R
GROVE OK       CLEAR     59  46  63 CALM      30.17R
ROGERS AR      CLEAR     58  44  60 S5        30.19R
SILOAM SPRINGS CLEAR     56  42  59 SE6       30.18R
HARRISON AR    CLEAR     58  39  49 S5        30.20R
NEAR YELLVILLE CLEAR     55  41  59 CALM      30.20R

......KANSAS AND MISSOURI......

CITY           SKY/WX    TMP DP  RH WIND       PRES   REMARKS
KANSAS CTY INT CLEAR     55  47  74 S9        30.09R
DOWNTOWN KC    CLEAR     66  48  52 S9        30.08R
COLUMBIA       CLEAR     56  45  66 S9        30.15S
SEDALIA        CLEAR     56  48  74 S9        30.14S
ST JOSEPH      CLEAR     58  48  69 S8        30.06R
ST LOUIS       CLEAR     63  39  41 S9        30.19S
SPIRIT OF STL  CLEAR     54  45  71 S5        30.18R
KIRKSVILLE     CLEAR     54  46  74 S7        30.12R
WICHITA        CLEAR     60  46  59 S10       30.07R
TOPEKA         CLEAR     62  49  62 S6        30.06R
OLATHE         CLEAR     55  47  74 S8        30.10R

......TENNESSEE......

CITY           SKY/WX    TMP DP  RH WIND       PRES   REMARKS
MEMPHIS        CLEAR     61  46  57 CALM      30.23R
NASHVILLE      MOCLDY    60  43  53 CALM      30.27S

......ARKANSAS.......

CITY           SKY/WX    TMP DP  RH WIND       PRES   REMARKS
FAYETTEVILLE   CLEAR     49  45  86 CALM      30.18R
FT SMITH       CLEAR     63  46  54 E3        30.16S
LITTLE ROCK    CLEAR     56  47  71 CALM      30.21R

......OKLAHOMA.......

CITY           SKY/WX    TMP DP  RH WIND       PRES   REMARKS
TULSA          CLEAR     62  47  57 SE7       30.12R
PONCA CITY     CLEAR     62  46  55 S9        30.09R
MCALESTER      PTCLDY    63  44  50 S3        30.16R
OKLAHOMA CITY  PTCLDY    56  46  69 SE9       30.11R

......IOWA............

CITY           SKY/WX    TMP DP  RH WIND       PRES   REMARKS
DES MOINES     CLEAR     62  45  53 S8        30.04R
QUAD CITIES    CLEAR     56  43  61 S5        30.11R

......ILLINOIS........

CITY           SKY/WX    TMP DP  RH WIND       PRES   REMARKS
QUINCY         CLEAR     59  42  53 S8        30.14R
CHICAGO        PTCLDY    62  41  46 S8        30.12R




USA.gov is the U.S. government's official web portal to all federal, state and local government web resources and services.